JILIN-01 GAOFEN 3D 29 (52446 NORAD) Tracking and Keplerian Element Data

This shows tracking and keplerian element data for the satellite.

Feedback or suggestion? Click here.




ElementValue
Catalog52446
NameJILIN-01 GAOFEN 3D 29
Epoch Orbit244
Epoch Day141.1999447
Epoch Year2022
RAAN205.8176
Inclination97.6804
Eccentricity0.0014505
Argument of Perigee212.0344
Mean Anonmoly177.7459
Mean Motion15.09617927
Decay Rate7.365E-05
L11 52446U 22048D 22141.19994470 .00007365 00000+0 46087-3 0 9998
L22 52446 97.6804 205.8176 0014505 212.0344 177.7459 15.09617927 2444

Live tracking and technical data element details for JILIN-01 GAOFEN 3D 29 (NORAD 52446). JILIN-01 GAOFEN 3D 29 can be tracked NOW for your location showing map with azimuth and elevation plus other details from your city location.

Track the satellite on the map from your city or location and see movement details for azimuth, elevation, latitude, longitude, range, height, and movement on the map or in text.







IsCatalogInMostPopularTable: catalog: 52446, numindb: 1
Update: records affected: 1



GetName: 52446 JILIN-01 GAOFEN 3D 29

Hit Count: updated at: Mon, 23 May 2022 17:22:50 GMT